User: anonymous   Login
Location: Unspecified
(0.0000°N, 0.0000°E)
Time: 19:17:34
(UTC+00:00)
Language:

Cosmos 2226 - Orbit

View from above orbital plane
View from above orbital plane
View from above satellite
View from above satellite

Ground track
Ground track

The orbit data is extracted from the following two-line orbital elements,

1 22282U 92092A   18169.18337812 -.00000010  00000-0  56523-4 0  9993
2 22282  73.6259  58.9638 0029829 254.4881 219.8534 12.41248560154983
Epoch (UTC): 18 June 2018 04:24:03
Eccentricity: 0.0029829
inclination: 73.6259°
perigee height: 1478 km
apogee height: 1525 km
right ascension of ascending node: 58.9638°
argument of perigee: 254.4881°
revolutions per day: 12.41248560
mean anomaly at epoch: 219.8534°
orbit number at epoch: 15498

The dashed part of the orbit path shows where the satellite is in the earth's shadow,  

DLR